When you browse on this site, cookies collect data to enhance your experience and personalize the content and advertising you see.
Visit our Privacy Policy to learn more. By continuing to use the site, you agree to this use of cookies and data.

Meteo pe oră la Szeged

Astăzi, 7 August, Vineri

Timp Temperatura Precipitaţii Vânt Presiune Umiditate
00:00 +22°C° 0 mm 3 m/s 755 mmHg 67%
01:00 +22°C° 0 mm 3 m/s 755 mmHg 69%
02:00 +22°C° 0 mm 3 m/s 755 mmHg 66%
03:00 +22°C° 0 mm 3 m/s 755 mmHg 63%
04:00 +23°C° 0 mm 2 m/s 755 mmHg 60%
05:00 +24°C° 0 mm 2 m/s 756 mmHg 60%
06:00 +25°C° 0 mm 2 m/s 756 mmHg 60%
07:00 +25°C° 0 mm 2 m/s 756 mmHg 59%
08:00 +27°C° 0 mm 2 m/s 756 mmHg 55%
09:00 +28°C° 0 mm 2 m/s 756 mmHg 51%
10:00 +30°C° 0 mm 2 m/s 757 mmHg 46%
11:00 +31°C° 0 mm 2 m/s 756 mmHg 44%
12:00 +33°C° 0 mm 3 m/s 756 mmHg 42%
13:00 +34°C° 0 mm 3 m/s 756 mmHg 41%
14:00 +34°C° 0 mm 3 m/s 756 mmHg 41%
15:00 +34°C° 0 mm 4 m/s 756 mmHg 41%
16:00 +34°C° 0 mm 4 m/s 755 mmHg 40%
17:00 +32°C° 0 mm 4 m/s 755 mmHg 48%
18:00 +29°C° 0 mm 5 m/s 755 mmHg 56%
19:00 +28°C° 0 mm 5 m/s 755 mmHg 63%
20:00 +27°C° 0 mm 5 m/s 755 mmHg 64%
21:00 +27°C° 0 mm 5 m/s 755 mmHg 64%
22:00 +26°C° 0 mm 4 m/s 756 mmHg 65%
23:00 +25°C° 0 mm 4 m/s 756 mmHg 67%

Mâine, 8 August, Sâmbătă

Timp Temperatura Precipitaţii Vânt Presiune Umiditate
00:00 +24°C° 0 mm 3 m/s 756 mmHg 69%
01:00 +24°C° 0 mm 3 m/s 756 mmHg 71%
02:00 +23°C° 0 mm 2 m/s 756 mmHg 73%
03:00 +23°C° 0 mm 2 m/s 756 mmHg 74%
04:00 +21°C° 0 mm 2 m/s 756 mmHg 76%
05:00 +23°C° 0 mm 2 m/s 756 mmHg 74%
06:00 +24°C° 0 mm 2 m/s 756 mmHg 72%
07:00 +25°C° 0 mm 2 m/s 756 mmHg 70%
08:00 +27°C° 0 mm 3 m/s 757 mmHg 65%
09:00 +28°C° 0 mm 3 m/s 757 mmHg 59%
10:00 +30°C° 0 mm 3 m/s 757 mmHg 54%
11:00 +31°C° 0 mm 3 m/s 756 mmHg 49%
12:00 +32°C° 0 mm 2 m/s 756 mmHg 44%
13:00 +35°C° 0 mm 2 m/s 756 mmHg 39%
14:00 +34°C° 0 mm 3 m/s 755 mmHg 40%
15:00 +34°C° 0 mm 4 m/s 755 mmHg 41%
16:00 +34°C° 0 mm 4 m/s 755 mmHg 43%
17:00 +32°C° 0 mm 4 m/s 755 mmHg 48%
18:00 +30°C° 0 mm 4 m/s 755 mmHg 54%
19:00 +28°C° 0 mm 3 m/s 754 mmHg 59%
20:00 +27°C° 0 mm 3 m/s 755 mmHg 62%
21:00 +26°C° 0 mm 2 m/s 755 mmHg 64%
22:00 +26°C° 0 mm 2 m/s 755 mmHg 67%
23:00 +25°C° 0 mm 2 m/s 755 mmHg 68%

Poimâine, 9 August, Duminică

Timp Temperatura Precipitaţii Vânt Presiune Umiditate
00:00 +25°C° 0 mm 2 m/s 755 mmHg 68%
01:00 +25°C° 0 mm 2 m/s 755 mmHg 69%
02:00 +24°C° 0 mm 2 m/s 754 mmHg 72%
03:00 +23°C° 0 mm 2 m/s 754 mmHg 75%
04:00 +23°C° 0 mm 2 m/s 754 mmHg 78%
05:00 +24°C° 0 mm 2 m/s 754 mmHg 75%
06:00 +25°C° 0 mm 2 m/s 755 mmHg 73%
07:00 +26°C° 0 mm 2 m/s 755 mmHg 70%
08:00 +27°C° 0 mm 2 m/s 755 mmHg 64%
09:00 +29°C° 0 mm 2 m/s 755 mmHg 57%
10:00 +31°C° 0 mm 2 m/s 755 mmHg 50%
11:00 +33°C° 0 mm 3 m/s 754 mmHg 47%
12:00 +34°C° 0 mm 3 m/s 754 mmHg 44%
13:00 +34°C° 0 mm 3 m/s 754 mmHg 41%
14:00 +34°C° 0 mm 3 m/s 754 mmHg 40%
15:00 +34°C° 0 mm 3 m/s 753 mmHg 40%
16:00 +34°C° 0 mm 3 m/s 753 mmHg 40%
17:00 +33°C° 0 mm 3 m/s 753 mmHg 46%
18:00 +30°C° 0 mm 2 m/s 753 mmHg 51%
19:00 +28°C° 0 mm 2 m/s 753 mmHg 57%
20:00 +27°C° 0.1 mm 2 m/s 753 mmHg 61%
21:00 +26°C° 0.1 mm 2 m/s 753 mmHg 65%
22:00 +25°C° 0.1 mm 2 m/s 754 mmHg 69%
23:00 +25°C° 0 mm 2 m/s 753 mmHg 70%

10 August, Luni

Timp Temperatura Precipitaţii Vânt Presiune Umiditate
00:00 +24°C° 0 mm 2 m/s 753 mmHg 71%
01:00 +24°C° 0 mm 2 m/s 753 mmHg 72%
02:00 +23°C° 0 mm 2 m/s 753 mmHg 74%
03:00 +23°C° 0 mm 2 m/s 753 mmHg 77%
04:00 +23°C° 0 mm 2 m/s 753 mmHg 80%
05:00 +24°C° 0 mm 2 m/s 753 mmHg 77%
06:00 +25°C° 0 mm 2 m/s 753 mmHg 74%
07:00 +25°C° 0 mm 2 m/s 754 mmHg 71%
08:00 +27°C° 0 mm 2 m/s 754 mmHg 65%
09:00 +29°C° 0 mm 2 m/s 754 mmHg 59%
10:00 +30°C° 0 mm 2 m/s 754 mmHg 53%
11:00 +31°C° 0 mm 2 m/s 753 mmHg 49%
12:00 +33°C° 0 mm 3 m/s 753 mmHg 45%
13:00 +34°C° 0 mm 3 m/s 753 mmHg 41%
14:00 +34°C° 0 mm 3 m/s 753 mmHg 40%
15:00 +34°C° 0 mm 3 m/s 752 mmHg 40%
16:00 +34°C° 0 mm 3 m/s 752 mmHg 39%
17:00 +31°C° 0 mm 3 m/s 752 mmHg 44%
18:00 +29°C° 0 mm 2 m/s 752 mmHg 49%
19:00 +28°C° 0 mm 2 m/s 752 mmHg 54%
20:00 +27°C° 0 mm 2 m/s 753 mmHg 57%
21:00 +26°C° 0 mm 2 m/s 753 mmHg 60%
22:00 +25°C° 0 mm 2 m/s 753 mmHg 63%
23:00 +25°C° 0 mm 2 m/s 753 mmHg 66%

11 August, Marţi

Timp Temperatura Precipitaţii Vânt Presiune Umiditate
00:00 +24°C° 0 mm 2 m/s 753 mmHg 69%
01:00 +24°C° 0 mm 1 m/s 753 mmHg 73%
02:00 +23°C° 0 mm 2 m/s 753 mmHg 75%
03:00 +23°C° 0 mm 2 m/s 753 mmHg 77%
04:00 +21°C° 0 mm 2 m/s 753 mmHg 79%
05:00 +23°C° 0 mm 2 m/s 753 mmHg 76%
06:00 +25°C° 0 mm 2 m/s 754 mmHg 73%
07:00 +26°C° 0 mm 2 m/s 754 mmHg 69%
08:00 +27°C° 0 mm 2 m/s 754 mmHg 63%
09:00 +29°C° 0 mm 2 m/s 754 mmHg 57%
10:00 +31°C° 0 mm 2 m/s 754 mmHg 50%
11:00 +33°C° 0 mm 3 m/s 754 mmHg 47%
12:00 +33°C° 0 mm 3 m/s 754 mmHg 43%
13:00 +34°C° 0 mm 3 m/s 753 mmHg 40%
14:00 +34°C° 0 mm 3 m/s 753 mmHg 40%
15:00 +34°C° 0 mm 3 m/s 753 mmHg 39%
16:00 +34°C° 0 mm 3 m/s 753 mmHg 39%
17:00 +31°C° 0 mm 3 m/s 753 mmHg 43%
18:00 +30°C° 0 mm 3 m/s 753 mmHg 48%
19:00 +28°C° 0 mm 2 m/s 753 mmHg 53%
20:00 +27°C° 0 mm 2 m/s 753 mmHg 55%
21:00 +26°C° 0 mm 2 m/s 753 mmHg 56%
22:00 +25°C° 0 mm 1 m/s 753 mmHg 57%
23:00 +25°C° 0 mm 2 m/s 753 mmHg 59%

12 August, Miercuri

Timp Temperatura Precipitaţii Vânt Presiune Umiditate
00:00 +24°C° 0 mm 2 m/s 753 mmHg 61%
01:00 +24°C° 0 mm 2 m/s 753 mmHg 62%
02:00 +23°C° 0 mm 2 m/s 753 mmHg 65%
03:00 +23°C° 0 mm 2 m/s 753 mmHg 68%
04:00 +21°C° 0 mm 3 m/s 753 mmHg 71%
05:00 +22°C° 0 mm 3 m/s 753 mmHg 71%
06:00 +24°C° 0 mm 3 m/s 754 mmHg 70%
07:00 +25°C° 0 mm 3 m/s 754 mmHg 69%
08:00 +27°C° 0 mm 3 m/s 754 mmHg 62%
09:00 +28°C° 0 mm 3 m/s 754 mmHg 55%
10:00 +30°C° 0 mm 4 m/s 754 mmHg 49%
11:00 +32°C° 0 mm 4 m/s 754 mmHg 45%
12:00 +33°C° 0 mm 4 m/s 754 mmHg 42%
13:00 +34°C° 0 mm 4 m/s 753 mmHg 39%
14:00 +33°C° 0 mm 5 m/s 753 mmHg 39%
15:00 +33°C° 0 mm 5 m/s 753 mmHg 39%
16:00 +33°C° 0 mm 5 m/s 753 mmHg 38%
17:00 +30°C° 0 mm 4 m/s 753 mmHg 44%
18:00 +28°C° 0 mm 4 m/s 753 mmHg 49%
19:00 +26°C° 0 mm 3 m/s 754 mmHg 54%
20:00 +25°C° 0 mm 3 m/s 754 mmHg 55%
21:00 +24°C° 0 mm 2 m/s 754 mmHg 56%
22:00 +23°C° 0 mm 2 m/s 754 mmHg 57%
23:00 +21°C° 0 mm 2 m/s 754 mmHg 59%
Arată mai mult